TimeEDT,TemperatureF,Dew PointF,Humidity,Sea Level PressureIn,VisibilityMPH,Wind Direction,Wind SpeedMPH,Gust SpeedMPH,PrecipitationIn,Events,Conditions,WindDirDegrees,DateUTC
12:40 AM,39.2,35.6,87,30.25,9.0,West,4.6,-,0.01,,Overcast,260,2013-10-25 04:40:00
12:51 AM,39.0,36.0,89,30.26,9.0,West,4.6,-,0.01,Rain,Light Rain,280,2013-10-25 04:51:00
1:10 AM,37.4,35.6,93,30.25,10.0,West,6.9,-,0.00,,Overcast,280,2013-10-25 05:10:00
1:51 AM,37.0,34.0,89,30.28,10.0,WNW,5.8,-,0.00,,Overcast,290,2013-10-25 05:51:00
2:51 AM,37.0,34.0,89,30.29,10.0,West,3.5,-,N/A,,Overcast,260,2013-10-25 06:51:00
3:51 AM,37.0,34.0,89,30.31,9.0,WSW,5.8,-,N/A,,Overcast,240,2013-10-25 07:51:00
4:51 AM,37.0,34.0,89,30.31,9.0,Variable,4.6,-,N/A,,Overcast,0,2013-10-25 08:51:00
5:51 AM,36.0,34.0,93,30.34,8.0,SW,4.6,-,N/A,,Overcast,230,2013-10-25 09:51:00
6:51 AM,36.0,34.0,93,30.36,7.0,SSW,4.6,-,N/A,,Overcast,200,2013-10-25 10:51:00
7:51 AM,36.0,34.0,93,30.38,5.0,SW,3.5,-,N/A,,Overcast,220,2013-10-25 11:51:00
8:51 AM,37.0,34.0,89,30.41,4.0,SW,3.5,-,N/A,,Overcast,230,2013-10-25 12:51:00
9:51 AM,37.9,33.1,83,30.44,7.0,WSW,5.8,-,N/A,,Overcast,240,2013-10-25 13:51:00
10:51 AM,41.0,33.1,73,30.44,10.0,WNW,5.8,-,N/A,,Scattered Clouds,290,2013-10-25 14:51:00
11:00 AM,42.8,33.8,70,30.43,10.0,Variable,3.5,-,N/A,,Mostly Cloudy,0,2013-10-25 15:00:00
11:51 AM,44.1,33.1,65,30.45,10.0,Calm,Calm,-,N/A,,Mostly Cloudy,0,2013-10-25 15:51:00
12:51 PM,44.1,28.9,55,30.43,10.0,WNW,4.6,-,N/A,,Overcast,300,2013-10-25 16:51:00
1:51 PM,46.0,28.9,51,30.41,10.0,NNW,3.5,-,N/A,,Overcast,330,2013-10-25 17:51:00
2:51 PM,45.0,27.0,49,30.40,10.0,SW,6.9,-,N/A,,Overcast,230,2013-10-25 18:51:00
3:51 PM,46.0,27.0,47,30.39,10.0,WSW,6.9,-,N/A,,Overcast,240,2013-10-25 19:51:00
4:51 PM,46.0,27.0,47,30.39,10.0,SW,4.6,-,N/A,,Overcast,220,2013-10-25 20:51:00
5:51 PM,45.0,28.0,52,30.38,10.0,WSW,3.5,-,N/A,,Overcast,240,2013-10-25 21:51:00
6:51 PM,42.1,28.0,58,30.38,10.0,Calm,Calm,-,N/A,,Partly Cloudy,0,2013-10-25 22:51:00
7:51 PM,39.9,28.9,65,30.37,10.0,South,4.6,-,N/A,,Partly Cloudy,190,2013-10-25 23:51:00
8:51 PM,39.0,28.9,67,30.37,10.0,SSW,3.5,-,N/A,,Clear,210,2013-10-26 00:51:00
9:51 PM,36.0,30.0,79,30.37,10.0,SSW,3.5,-,N/A,,Clear,210,2013-10-26 01:51:00
10:51 PM,35.1,28.9,78,30.37,10.0,SSW,4.6,-,N/A,,Clear,200,2013-10-26 02:51:00
11:51 PM,33.1,30.0,89,30.35,10.0,SSW,3.5,-,N/A,,Clear,200,2013-10-26 03:51:00